This is the latest recevied weather packets stored in our database for station/object HS3MXC-2. If no packets are shown the sender has not sent any weather packets the latest 10 day(s).
| Time | Temp. | Humidity | Pressure | Rain* | Wind** | Luminosity | Snow |
|---|---|---|---|---|---|---|---|
| 1777986168 | 28.89° C | 66% | 995.1 hPa | - | - | - | - |
| 1777985860 | 28.89° C | 66% | 995.1 hPa | - | - | - | - |
| 1777985552 | 28.89° C | 66% | 995.2 hPa | - | - | - | - |
| 1777985244 | 28.89° C | 66% | 995.3 hPa | - | - | - | - |
| 1777984936 | 28.89° C | 66% | 995.3 hPa | - | - | - | - |
| 1777984625 | 28.89° C | 64% | 995.2 hPa | - | - | - | - |
| 1777984317 | 28.89° C | 64% | 995.2 hPa | - | - | - | - |
| 1777984010 | 28.89° C | 64% | 995.1 hPa | - | - | - | - |
| 1777981551 | 28.89° C | 63% | 995.1 hPa | - | - | - | - |
| 1777980932 | 28.89° C | 62% | 995.1 hPa | - | - | - | - |
| 1777980624 | 28.89° C | 61% | 995.2 hPa | - | - | - | - |
| 1777980317 | 28.89° C | 62% | 995.1 hPa | - | - | - | - |
| 1777980006 | 28.89° C | 61% | 995.1 hPa | - | - | - | - |
| 1777979698 | 28.89° C | 60% | 994.9 hPa | - | - | - | - |
| 1777979392 | 28.89° C | 61% | 994.8 hPa | - | - | - | - |
| 1777979085 | 28.89° C | 60% | 994.7 hPa | - | - | - | - |
| 1777978778 | 28.89° C | 60% | 994.6 hPa | - | - | - | - |
| 1777978470 | 28.89° C | 60% | 994.5 hPa | - | - | - | - |
| 1777978163 | 28.89° C | 61% | 994.5 hPa | - | - | - | - |
| 1777977843 | 28.89° C | 61% | 994.5 hPa | - | - | - | - |
| 1777977226 | 28.89° C | 59% | 994.7 hPa | - | - | - | - |
| 1777976917 | 28.89° C | 58% | 994.8 hPa | - | - | - | - |
| 1777976610 | 28.33° C | 57% | 994.7 hPa | - | - | - | - |
| 1777976304 | 28.33° C | 59% | 994.5 hPa | - | - | - | - |
| 1777975686 | 28.33° C | 56% | 994.4 hPa | - | - | - | - |
* Rain since midnight (hover to see other rain measurements)
** Current wind speed in m/s (hover to see current wind gust speed)